CAPE
0 0 0 0 0 0 0 0 0 0 0 14 0 0 0 0 0 0 0 0 0 0 0 0 0 0 0 0 0 1 0 0 0 0 0 0 2 0 0 0 0 0 0 14
0 0 0 0 0 0 0 0 0 0 0 11 9 3 1 0 0 0 0 0 0 0 0 0 0 0 0 0 0 0 0 0 0 0 0 0 0 1 0 0 0 0 0 4
0 0 0 0 0 0 0 0 0 0 0 0 0 0 0 0 0 0 0 0 0 0 0 0 0 0 0 0 0 0 0 0 0 0 0 0 0 0 0 0 0 0 0 0
0 0 0 0 0 0 0 0 0 0 0 0 0 0 0 0 2 0 0 0 0 0 0 0 0 0 0 0 0 0 0 0 0 0 0 0 0 0 0 0 0 0 0 4
0 0 0 0 0 0 0 0 0 0 0 0 0 0 0 0 14 66 10 0 0 0 0 0 0 0 0 0 0 0 0 0 0 0 0 0 0 0 0 0 0 0 0 5
0 0 0 0 0 0 0 0 0 0 0 0 0 0 0 0 0 48 116 0 0 0 0 0 0 0 0 0 0 0 0 0 0 0 0 0 0 0 0 0 0 0 1 4
0 0 0 0 0 0 0 0 0 0 0 0 0 0 0 0 0 2 66 100 1 0 0 2 0 0 0 0 0 0 0 0 0 0 0 0 0 0 0 0 0 0 2 18
0 0 0 0 0 0 0 0 0 0 0 0 0 0 0 0 0 0 14 97 89 1 0 0 0 0 0 0 0 0 0 0 0 0 0 0 0 2 2 0 0 0 0 9
0 0 0 0 0 0 0 0 0 0 0 0 0 0 0 0 0 0 0 26 99 73 2 27 3 0 0 0 0 0 0 0 0 0 0 0 10 14 41 50 27 1 0 26
0 0 0 0 0 0 0 0 0 0 0 0 0 0 0 0 0 0 0 0 17 36 14 64 18 0 0 0 0 0 0 0 0 0 0 0 3 15 31 30 59 37 2 12
0 0 0 0 0 0 0 0 0 3 0 0 0 0 0 0 0 0 0 0 0 23 65 26 54 31 1 0 0 0 0 0 0 0 0 0 5 14 9 20 25 58 32 35
0 0 0 0 0 0 0 0 0 0 0 0 0 0 0 0 0 0 0 0 0 2 25 64 30 60 52 19 0 0 9 12 19 20 36 40 112 130 65 15 52 59 1 5
0 0 0 0 0 0 0 0 0 0 0 0 0 0 0 0 0 0 0 0 0 0 1 33 39 31 64 66 88 70 34 45 97 139 103 62 101 133 129 132 219 0 0 0
3 1 0 0 0 0 0 0 0 0 0 0 0 0 0 9 0 0 0 0 0 0 0 14 72 95 74 58 148 220 219 165 99 155 196 158 228 225 230 226 230 20 0 0
1 0 3 0 0 0 0 0 0 0 0 0 0 0 0 0 0 3 7 0 0 0 0 2 67 108 120 135 199 184 223 212 264 263 258 293 202 282 297 155 56 26 11 0
1 0 0 0 0 0 0 0 0 0 0 0 0 0 0 0 0 0 1 0 0 4 0 0 67 121 280 412 519 521 513 414 400 429 429 347 89 61 18 49 45 27 0 0
1 2 0 0 0 0 0 0 0 0 0 0 0 0 0 0 0 0 0 0 1 1 0 0 2 114 313 429 489 509 539 605 627 549 305 6 0 19 9 0 0 0 0 0
4 1 0 0 0 0 0 0 0 0 0 0 0 0 0 0 0 0 0 0 0 0 0 0 0 73 321 336 326 256 185 244 177 75 4 3 2 1 1 0 0 0 0 0
3 1 0 7 0 0 0 0 0 0 0 0 0 0 0 0 0 0 0 0 0 0 0 0 21 166 286 278 147 121 83 1 0 1 0 0 0 0 0 0 0 0 0 0
3 0 5 0 0 4 0 0 0 0 0 0 0 0 0 0 0 0 0 0 0 0 0 30 82 166 214 129 10 0 0 0 0 0 0 0 0 0 0 0 0 0 0 0
0 0 0 8 6 0 1 0 0 0 0 0 0 0 0 0 0 0 0 0 0 7 27 23 71 151 103 0 0 0 0 0 0 0 0 0 0 0 0 0 0 0 0 0
0 3 1 0 0 0 2 0 0 0 0 0 0 0 0 0 0 0 0 0 0 1 8 15 29 34 0 0 0 0 0 0 0 0 0 0 0 0 0 0 0 0 0 0
1 0 0 0 0 0 0 2 0 0 0 0 0 0 0 0 0 0 4 0 0 0 0 0 0 0 0 0 0 0 0 0 0 0 0 0 0 0 0 0 0 0 0 0
0 0 1 23 0 5 15 19 0 0 0 0 0 0 0 0 1 0 0 0 0 0 0 0 0 0 0 0 0 0 0 0 0 0 0 0 0 0 0 0 0 0 0 0
0 29 22 18 2 8 0 1 1 2 0 0 0 0 0 0 0 0 0 0 0 0 0 0 0 0 0 0 0 0 0 0 0 0 0 0 0 0 0 0 0 0 0 0
2 3 16 10 14 19 2 0 0 0 0 0 0 0 0 0 0 0 0 0 0 0 0 0 0 0 0 0 0 0 0 0 0 0 0 0 0 0 0 0 0 0 0 0
CIN
-0 -0 -0 -0 -0 -0 -0 -0 -0 -0 -0 -30 -0 -0 -0 -0 -0 -0 -0 -0 -0 -0 -0 -0 -0 -0 -0 -0 -0 -0 -0 -0 -0 -0 -0 -0 -62 -0 -0 -0 -0 -0 -0 -47
-0 -0 -0 -0 -0 -0 -0 -0 -0 -0 -4 -15 -23 -44 -32 -0 -0 -0 -0 -0 -0 -0 -0 -0 -0 -0 -0 -0 -0 -0 -0 -0 -0 -0 -0 -0 -0 -66 -0 -0 -0 -0 -0 -42
-0 -0 -0 -0 -0 -0 -0 -0 -0 -0 -0 -0 -0 -0 -0 -0 -0 -0 -0 -0 -0 -0 -0 -0 -0 -0 -0 -0 -0 -0 -0 -0 -0 -0 -0 -0 -0 -0 -0 -0 -0 -0 -0 -0
-0 -0 -0 -0 -0 -0 -0 -0 -0 -0 -0 -1 -0 -0 -0 -0 -121 -0 -0 -0 -0 -0 -0 -0 -0 -0 -0 -0 -0 -0 -0 -0 -0 -0 -0 -0 -0 -0 -0 -0 -0 -0 -0 -68
-0 -0 -0 -0 -0 -0 -0 -0 -0 -0 -0 -0 -0 -0 -0 -0 -69 -154 -223 -0 -0 -0 -0 -0 -0 -0 -0 -0 -0 -0 -0 -0 -0 -0 -0 -0 -0 -0 -0 -0 -0 -0 -11 -122
-0 -0 -0 -0 -0 -0 -0 -0 -0 -0 -0 -0 -0 -0 -0 -0 -0 -110 -155 -0 -0 -0 -0 -0 -0 -0 -0 -0 -0 -0 -0 -0 -0 -0 -0 -0 -0 -0 -0 -0 -0 -0 -119 -169
-0 -0 -0 -0 -0 -0 -0 -0 -0 -0 -0 -0 -0 -0 -0 -0 -0 -21 -92 -179 -83 -0 -0 -213 -0 -0 -0 -0 -0 -0 -0 -0 -0 -0 -0 -0 -0 -0 -0 -0 -0 -0 -74 -126
-0 -0 -0 -0 -0 -0 -0 -0 -0 -0 -0 -0 -0 -0 -0 -0 -0 -0 -127 -116 -181 -42 -0 -0 -0 -0 -0 -0 -0 -0 -0 -0 -0 -0 -0 -0 -0 -263 -134 -0 -0 -0 -0 -123
-0 -0 -0 -0 -0 -0 -0 -0 -0 -0 -0 -0 -0 -0 -0 -0 -0 -0 -0 -133 -142 -232 -428 -434 -212 -115 -0 -0 -0 -0 -0 -0 -0 -0 -0 -34 -344 -285 -220 -169 -206 -29 -0 -118
-0 -0 -0 -0 -0 -0 -0 -0 -0 -21 -0 -0 -0 -0 -0 -0 -0 -0 -0 -0 -116 -162 -298 -309 -412 -35 -0 -0 -0 -0 -0 -0 -0 -0 -0 -0 -190 -236 -187 -227 -168 -172 -114 -154
-0 -0 -0 -0 -0 -0 -0 -0 -0 -18 -0 -0 -0 -0 -0 -0 -0 -0 -0 -0 -0 -133 -169 -262 -347 -401 -312 -0 -0 -0 -0 -0 -0 -0 -0 -0 -214 -251 -198 -147 -132 -160 -207 -191
-0 -0 -0 -0 -0 -0 -0 -0 -0 -0 -0 -0 -0 -0 -0 -0 -0 -0 -0 -0 -0 -100 -124 -159 -240 -300 -391 -451 -0 -0 -496 -494 -514 -458 -367 -288 -214 -178 -138 -108 -93 -95 -60 -192
-0 -0 -0 -0 -0 -0 -0 -0 -0 -0 -0 -0 -0 -0 -0 -0 -0 -9 -0 -0 -0 -0 -123 -159 -215 -232 -268 -336 -320 -334 -409 -431 -431 -360 -313 -218 -231 -183 -182 -144 -78 -0 -0 -0
-36 -11 -0 -0 -0 -0 -0 -0 -0 -0 -0 -0 -0 -0 -0 -18 -0 -17 -0 -0 -0 -0 -0 -118 -175 -188 -207 -273 -196 -184 -274 -374 -380 -332 -295 -211 -240 -223 -161 -108 -69 -68 -0 -0
-46 -0 -19 -14 -0 -0 -0 -0 -0 -0 -0 -0 -0 -0 -0 -0 -0 -34 -56 -0 -0 -0 -0 -46 -127 -128 -161 -136 -152 -189 -232 -289 -292 -277 -263 -219 -247 -203 -145 -179 -270 -320 -309 -0
-1 -0 -0 -0 -0 -0 -0 -0 -0 -0 -0 -0 -0 -0 -0 -0 -0 -0 -68 -0 -0 -47 -0 -0 -120 -144 -129 -132 -137 -145 -168 -199 -264 -247 -229 -210 -251 -226 -267 -280 -323 -351 -0 -0
-3 -3 -0 -0 -0 -6 -1 -0 -0 -0 -0 -0 -0 -3 -0 -0 -0 -0 -0 -0 -34 -13 -0 -0 -87 -116 -110 -155 -182 -189 -237 -250 -222 -216 -228 -97 -0 -311 -325 -101 -0 -0 -0 -0
-12 -52 -0 -0 -0 -0 -0 -0 -0 -0 -0 -0 -0 -0 -0 -0 -0 -0 -0 -0 -0 -0 -0 -0 -0 -115 -174 -285 -299 -333 -367 -306 -292 -291 -100 -0 -0 -0 -0 -0 -0 -0 -0 -0
-50 -26 -0 -3 -3 -0 -0 -0 -0 -0 -0 -0 -0 -0 -0 -0 -0 -0 -0 -0 -0 -0 -0 -0 -136 -195 -274 -298 -380 -358 -347 -32 -0 -0 -0 -0 -0 -0 -0 -0 -0 -0 -0 -0
-48 -0 -51 -8 -0 -1 -0 -0 -0 -0 -0 -0 -0 -0 -0 -0 -0 -0 -0 -0 -0 -0 -16 -189 -241 -265 -305 -416 -468 -0 -0 -0 -0 -0 -0 -0 -0 -0 -0 -0 -0 -0 -0 -0
-0 -0 -0 -57 -17 -5 -5 -10 -7 -0 -0 -0 -0 -0 -0 -0 -0 -0 -0 -0 -0 -146 -151 -245 -260 -235 -370 -189 -0 -0 -0 -0 -0 -0 -0 -0 -0 -0 -0 -0 -0 -0 -0 -0
-0 -35 -25 -0 -15 -0 -4 -0 -0 -0 -0 -0 -0 -0 -0 -0 -0 -0 -0 -0 -0 -142 -248 -319 -315 -383 -0 -0 -0 -0 -0 -0 -0 -0 -0 -0 -0 -0 -0 -0 -0 -0 -0 -0
-3 -0 -0 -0 -0 -0 -0 -10 -0 -0 -0 -0 -0 -0 -0 -4 -0 -0 -75 -0 -0 -0 -0 -0 -0 -0 -0 -0 -0 -0 -0 -0 -0 -0 -0 -0 -0 -0 -0 -0 -0 -0 -0 -0
-0 -5 -6 -22 -0 -66 -91 -149 -0 -0 -0 -0 -0 -0 -0 -0 -63 -0 -0 -0 -0 -0 -0 -0 -0 -0 -0 -0 -0 -0 -0 -0 -0 -0 -0 -0 -0 -0 -0 -0 -0 -0 -0 -0
-0 -46 -24 -45 -45 -66 -0 -119 -51 -45 -0 -0 -0 -0 -0 -0 -0 -0 -0 -0 -0 -0 -0 -0 -0 -0 -0 -0 -0 -0 -0 -0 -0 -0 -0 -0 -0 -0 -0 -0 -0 -0 -0 -0
-45 -21 -61 -27 -129 -153 -36 -0 -0 -0 -9 -0 -0 -0 -0 -0 -0 -0 -0 -0 -0 -0 -0 -0 -0 -0 -0 -0 -0 -0 -0 -0 -0 -0 -0 -0 -0 -0 -0 -0 -0 -0 -0 -0
Wind_Speed
19 13 8 5 3 2 2 2 3 3 4 7 3 4 4 6 8 9 11 15 16 19 20 21 22 22 22 23 24 29 32 24 11 9 12 12 13 14 15 11 15 36 36 33
24 15 10 9 4 2 9 15 14 4 9 9 5 6 8 4 6 9 12 14 16 17 20 21 22 21 22 23 26 30 33 36 35 33 31 33 37 24 39 41 41 41 38 36
19 16 11 12 13 22 23 17 9 6 10 6 9 1 7 2 3 7 13 15 15 18 18 21 22 22 23 25 26 30 31 33 34 35 34 35 34 36 38 40 40 39 35 35
29 17 22 20 21 17 34 16 12 15 12 10 11 1 5 10 8 13 14 15 16 17 19 21 23 23 24 26 27 29 31 31 32 32 34 35 35 36 38 38 37 36 33 29
24 18 13 18 11 19 32 10 17 11 12 14 4 7 4 15 9 17 19 18 18 18 20 22 22 22 23 24 26 27 28 31 31 31 31 32 32 32 33 30 28 28 26 24
25 26 21 17 20 15 30 21 18 17 15 9 8 9 7 4 12 18 20 22 22 20 20 21 21 20 20 21 24 24 26 27 30 30 30 30 29 27 26 25 25 22 23 19
26 39 39 33 32 32 22 17 20 22 8 7 17 12 3 5 12 18 16 21 22 23 22 21 20 20 20 22 24 25 25 26 26 28 29 30 30 28 25 22 20 15 15 15
26 30 24 22 20 23 23 13 16 19 4 14 21 10 5 6 8 2 13 19 19 21 24 21 20 20 20 21 22 23 25 25 27 28 29 28 28 25 24 20 17 18 16 12
23 30 29 25 26 22 23 23 17 20 19 20 23 25 32 10 13 7 13 12 16 18 19 22 21 21 20 20 22 23 23 25 25 25 25 26 28 27 24 21 15 14 14 12
30 33 24 35 30 33 25 16 20 23 23 16 18 25 12 16 10 9 6 8 10 11 15 19 19 21 21 21 23 24 22 26 24 16 17 22 26 27 21 15 16 14 11 12
28 35 35 28 26 30 26 27 22 20 21 15 18 21 14 11 4 2 11 7 2 9 10 15 17 20 22 23 21 20 23 24 21 19 20 23 25 23 19 18 18 17 14 12
25 26 35 41 32 26 29 26 21 26 25 21 15 17 21 11 9 16 20 20 8 0 2 6 10 16 19 23 24 23 20 21 20 21 19 18 13 14 15 16 17 28 23 10
22 31 34 31 35 38 33 28 27 28 24 19 12 18 16 11 10 19 24 13 12 9 6 3 2 6 12 18 21 22 21 24 21 20 19 15 13 12 14 12 9 21 13 11
25 32 39 40 32 29 28 30 30 25 32 28 19 24 26 18 15 17 18 13 9 8 9 4 2 4 6 11 14 15 17 17 18 17 19 17 14 14 14 14 13 12 11 11
26 38 38 42 35 36 36 35 39 35 33 30 26 21 21 19 16 15 15 13 15 13 8 7 5 5 7 9 7 8 12 12 13 15 16 18 13 12 12 11 10 10 11 10
26 31 37 43 39 35 34 33 36 44 41 39 30 25 20 26 27 25 16 12 12 12 13 12 11 12 6 5 4 5 6 8 10 12 13 14 12 10 9 8 6 5 6 8
27 30 34 40 33 32 41 31 33 32 33 29 34 23 24 31 32 25 20 15 12 14 12 11 12 13 13 9 7 9 10 8 8 10 11 11 10 9 7 6 6 6 7 8
33 28 29 36 34 43 41 32 39 45 42 31 31 26 27 25 27 28 22 13 14 15 11 14 13 15 15 11 10 10 11 8 6 7 9 10 9 9 8 7 6 7 8 10
32 29 32 34 36 39 43 38 32 39 52 37 38 32 27 28 31 30 24 15 14 15 13 11 10 11 13 13 13 12 11 8 6 7 8 9 9 9 9 9 9 10 11 12
31 34 35 35 38 38 38 37 34 25 34 25 31 32 32 31 34 33 30 22 18 16 12 9 9 11 12 13 10 10 10 10 9 8 7 7 8 8 9 10 9 9 10 10
37 37 39 36 36 37 42 41 30 41 40 30 29 31 28 30 32 33 29 20 15 11 8 8 12 11 11 9 9 10 9 9 8 7 7 7 8 7 6 7 9 9 10 10
39 36 37 32 35 43 27 29 28 27 26 27 29 28 30 32 32 23 17 13 9 9 9 10 11 13 12 11 10 11 11 9 8 7 7 7 7 7 8 9 10 10 9 10
36 35 33 33 33 31 35 32 22 22 25 26 30 31 31 32 29 16 13 12 10 11 11 13 12 12 14 13 12 11 11 8 8 7 7 7 8 10 10 10 11 11 11 12
40 35 38 39 43 41 32 28 24 24 26 25 25 28 30 31 29 29 23 14 14 13 13 12 12 14 14 13 12 9 7 6 6 7 8 8 10 11 13 14 14 13 14 15
31 29 39 43 41 32 32 30 28 25 23 28 28 26 27 29 31 29 22 20 14 13 14 12 11 11 13 12 10 9 7 6 7 8 9 10 11 12 14 16 17 16 18 17
26 30 32 36 29 33 36 31 28 27 28 28 31 33 31 30 32 31 22 19 15 12 12 12 13 11 11 10 10 10 9 8 9 10 11 12 12 13 13 14 16 18 18 18
Wind_Direction
279 286 263 225 231 192 169 188 239 296 359 24 62 61 99 65 86 103 111 138 134 145 145 141 135 134 126 127 124 141 141 138 160 172 174 191 200 189 180 189 228 213 205 215
269 273 271 288 264 252 191 214 228 326 27 46 46 192 5 90 116 134 132 135 142 135 145 147 143 131 132 127 132 142 147 155 156 150 149 159 163 171 184 188 197 198 205 204
263 291 282 282 286 279 213 212 221 353 357 15 20 89 189 13 116 124 153 153 145 148 145 152 150 144 141 143 142 148 148 149 154 156 156 160 163 175 180 184 189 198 193 205
269 271 277 280 279 292 255 224 327 338 350 351 16 31 159 177 162 166 165 158 154 152 153 154 154 152 151 152 152 152 156 153 153 156 157 160 163 165 175 183 191 195 195 191
267 278 262 269 259 290 260 317 315 322 330 335 337 6 102 188 158 181 180 176 168 160 157 159 161 157 156 153 153 153 152 158 157 155 154 157 164 172 180 178 182 188 190 193
267 271 279 279 282 288 284 303 309 316 324 306 338 347 202 147 187 188 184 182 178 170 168 165 165 158 158 156 156 153 155 160 166 167 169 172 175 173 172 176 183 187 195 199
267 261 259 266 271 271 294 293 293 299 295 223 327 336 189 171 192 188 185 186 181 179 174 172 168 166 164 166 166 163 162 167 169 173 180 184 187 186 185 187 190 189 189 193
261 266 260 266 262 275 281 279 279 297 310 320 311 185 16 30 5 205 199 186 180 178 183 181 178 174 173 174 175 176 176 177 179 183 187 188 191 189 190 192 193 193 193 194
269 267 266 264 263 270 277 276 280 287 305 306 298 304 299 328 213 3 174 177 183 184 186 189 187 185 182 180 183 184 185 188 188 190 190 195 197 198 199 200 199 201 197 193
266 271 274 263 263 263 266 273 275 278 284 300 305 296 329 320 339 352 50 152 180 193 193 196 195 194 191 189 186 188 194 194 196 207 210 207 207 207 211 225 218 222 223 210
263 263 266 269 260 258 265 260 270 280 280 288 298 294 319 332 346 39 326 331 140 179 186 191 197 198 197 195 194 197 201 202 203 207 209 215 213 216 232 239 247 253 252 239
255 268 261 257 259 266 264 263 257 262 271 283 288 283 303 321 316 295 302 306 308 78 153 183 183 192 199 198 196 199 203 208 210 210 209 216 219 231 255 264 282 270 268 232
278 258 260 264 258 256 261 267 261 265 271 261 258 289 299 293 312 308 294 316 303 302 309 341 165 182 190 196 197 201 207 209 209 211 215 224 233 235 232 246 221 188 256 235
285 267 258 255 261 260 262 260 262 260 265 269 255 266 282 287 288 302 299 305 302 279 295 275 286 221 186 194 199 212 214 215 214 218 222 224 230 231 235 229 229 221 238 246
284 267 271 263 263 259 262 261 255 258 263 265 280 275 281 281 282 282 283 281 289 291 264 239 232 223 177 179 198 220 222 230 227 226 225 227 238 235 235 241 243 250 242 236
283 275 275 266 263 260 257 261 257 257 261 269 279 281 276 280 286 286 287 255 270 271 278 259 224 259 236 231 230 283 279 249 238 239 243 250 245 240 243 239 238 237 250 257
273 277 275 265 265 264 258 240 254 259 264 275 273 286 291 284 283 283 283 267 263 280 282 273 233 249 264 257 278 297 307 293 259 249 255 256 254 248 240 239 238 255 266 279
262 273 278 268 269 254 262 264 258 258 262 271 281 286 289 291 285 288 292 266 261 271 269 280 260 262 271 280 294 306 314 301 279 263 262 268 260 259 259 259 262 279 288 292
261 265 267 274 266 264 261 258 267 262 258 266 274 283 284 290 286 284 291 283 272 263 267 257 241 262 272 279 293 300 305 298 290 282 271 266 262 261 265 273 284 294 300 304
257 256 262 265 271 271 267 268 263 278 269 278 273 274 279 284 284 285 288 293 290 283 274 270 275 278 276 284 290 295 296 290 288 284 278 274 267 263 269 276 281 294 300 303
253 255 256 261 269 275 274 265 266 258 262 283 286 285 285 285 289 289 286 283 282 277 276 288 290 284 279 280 286 290 290 286 288 285 283 281 276 272 270 282 294 300 304 306
254 252 256 262 265 265 279 276 256 272 279 283 286 291 287 291 289 297 296 272 260 267 283 289 288 289 286 285 289 293 291 295 295 292 288 285 285 289 292 294 299 301 300 302
261 254 256 257 266 274 261 287 290 289 288 290 285 285 291 288 290 288 287 279 266 274 287 293 295 294 293 291 293 295 299 299 299 295 292 293 297 299 300 298 298 298 298 299
258 259 257 261 254 262 274 282 282 287 288 288 294 290 290 288 285 287 288 286 282 286 289 294 297 296 295 296 297 293 292 290 287 288 291 295 296 301 305 306 303 299 298 300
266 269 259 258 265 277 274 277 280 288 290 287 282 292 295 291 290 292 287 281 283 286 289 294 298 302 301 301 300 295 289 282 286 288 291 295 299 300 305 310 309 307 311 305
281 270 267 263 282 276 271 281 282 290 297 295 287 279 291 297 287 290 293 287 281 282 290 297 300 306 313 313 310 303 296 289 286 290 293 294 295 298 302 304 312 323 322 323